Location: Beaver Brook Station
(42.3793°N, 71.2203°W)
Time: 00:59:29
(UTC+00:00)

USA 305 - Pass Details

Date: 29 October 2020
Orbit: 568 x 577 km, 54.0° (Epoch: 30 November)

Event Time Altitude Azimuth Distance (km) Brightness Sun altitude
Rises 22:36:51 0° 311° (NW) 2,788 7.1 -10.8°
Reaches altitude 10° 22:39:15 10° 319° (NW) 1,886 6.0 -11.2°
Maximum altitude 22:43:15 37° 28° (NNE) 896 3.6 -12.0°
Enters shadow 22:45:50 19° 86° (E) 1,392 4.2 -12.4°
